Regional Weather Roundup
Issued by NWS Albany, NY

Home | Current Version | Previous Version | Text Only | Print | Product List | Glossary On
Versions: 1 2 3 4 5 6 7 8 9 10 11 12 13 14 15 16 17 18 19 20 21 22 23 24 25 26 27 28
000
ASUS41 KALY 230210
RWRALY

NEW YORK STATE HOURLY WEATHER ROUNDUP
NATIONAL WEATHER SERVICE ALBANY NY
1000 PM EDT SUN OCT 22 2017

NOTE: "FAIR" INDICATES FEW OR NO CLOUDS BELOW 12,000 FEET WITH NO
SIGNIFICANT WEATHER AND/OR NO OBSTRUCTIONS TO VISIBILITY.

NYZ032-033-038>043-046>054-057>066-NYZ062>081-082-084-230300-
EAST


CITY           SKY/WX    TMP DP  RH WIND       PRES   REMARKS
ALBANY         MOCLDY    63  43  48 S7        30.34R
GLENS FALLS    PTCLDY    47  42  83 CALM      30.33R
POUGHKEEPSIE   CLOUDY    51  46  83 CALM      30.36R
NEWBURGH       PTCLDY    63  46  55 VRB6      30.38R
MONTGOMERY     PTCLDY    52  47  83 CALM      30.36R
WHITE PLAINS   PTCLDY    54  49  83 CALM      30.38R
ISLIP          MOCLDY    57  55  93 SE3       30.39R
NEW YORK CITY  MOCLDY    65  53  65 S6        30.37S
CENTRAL PARK   MOCLDY    64  52  64 CALM      30.40S
$$

NYZ005>009-017-018-044>046-055-056-230300-
CENTRAL


CITY           SKY/WX    TMP DP  RH WIND       PRES   REMARKS
FULTON         PTCLDY    64  47  53 VRB3      30.25R
SYRACUSE       MOCLDY    56  48  74 CALM      30.26R
ROME           MOCLDY    55  48  77 SE7       30.30R
ELMIRA         PTCLDY    57  48  72 CALM      30.28R
BINGHAMTON     CLEAR     60  41  49 S10       30.33R
MONTICELLO     CLOUDY    56  44  64 SE3       30.39R
$$

NYZ026>034-041>043-087-230300-
NORTH


CITY           SKY/WX    TMP DP  RH WIND       PRES   REMARKS
WATERTOWN      PTCLDY    64  46  52 S5        30.22R
FORT DRUM      NOT AVBL
OGDENSBURG     FAIR      55  51  87 S5        30.22S
MASSENA        PTCLDY    50  49  96 CALM      30.24S
SARANAC LAKE   CLOUDY    42  41  96 CALM      30.29R
PLATTSBURGH    PTCLDY    52  45  77 S5        30.27R
$$

NYZ001>004-010>016-019>021-085-230300-
WEST


CITY           SKY/WX    TMP DP  RH WIND       PRES   REMARKS
NIAGARA FALLS  PTCLDY    65  51  60 S8        30.15S
BUFFALO        MOCLDY    67  50  54 S10       30.16F
DUNKIRK        MOCLDY    69  53  56 S13G20    30.15F
JAMESTOWN      CLOUDY    63  51  65 S9        30.21F
WELLSVILLE     CLEAR     62  50  64 S10G20    30.28F
ROCHESTER      CLOUDY    65  52  62 S8        30.20R
PENN YAN       PTCLDY    60  48  64 S6        30.27R
$$

             KEY
       WCI = WIND CHILL INDEX
       VSB = VISIBILITY
       HX  = HEAT INDEX
$$




USA.gov is the U.S. government's official web portal to all federal, state and local government web resources and services.